Stündliche Wetter Warner Robins

Heute, 21 Oktober, Mittwoch

Zeit Temperatur Niederschläge Wind Luftdruck Luftfeuchtigkeit
00:00 +20°C° 0 mm 2 m/S 757 mmHg 82%
01:00 +20°C° 0 mm 2 m/S 756 mmHg 86%
02:00 +19°C° 0 mm 2 m/S 756 mmHg 90%
03:00 +19°C° 0 mm 2 m/S 756 mmHg 94%
04:00 +19°C° 0 mm 3 m/S 756 mmHg 95%
05:00 +19°C° 0 mm 3 m/S 757 mmHg 95%
06:00 +19°C° 0 mm 3 m/S 757 mmHg 96%
07:00 +21°C° 0 mm 3 m/S 757 mmHg 90%
08:00 +22°C° 0 mm 3 m/S 758 mmHg 84%
09:00 +25°C° 0 mm 4 m/S 758 mmHg 78%
10:00 +27°C° 0 mm 4 m/S 757 mmHg 71%
11:00 +28°C° 0 mm 4 m/S 757 mmHg 64%
12:00 +30°C° 0 mm 4 m/S 757 mmHg 57%
13:00 +29°C° 1 mm 4 m/S 756 mmHg 62%
14:00 +29°C° 1 mm 4 m/S 756 mmHg 66%
15:00 +28°C° 1 mm 4 m/S 755 mmHg 71%
16:00 +27°C° 0.2 mm 4 m/S 756 mmHg 75%
17:00 +25°C° 0.2 mm 3 m/S 756 mmHg 78%
18:00 +24°C° 0.2 mm 3 m/S 756 mmHg 82%
19:00 +24°C° 0 mm 3 m/S 756 mmHg 85%
20:00 +22°C° 0 mm 3 m/S 757 mmHg 87%
21:00 +21°C° 0 mm 3 m/S 757 mmHg 90%
22:00 +21°C° 0 mm 2 m/S 757 mmHg 91%
23:00 +21°C° 0 mm 2 m/S 757 mmHg 92%

Morgen, 22 Oktober, Donnerstag

Zeit Temperatur Niederschläge Wind Luftdruck Luftfeuchtigkeit
00:00 +21°C° 0 mm 2 m/S 756 mmHg 93%
01:00 +20°C° 0 mm 2 m/S 756 mmHg 94%
02:00 +20°C° 0 mm 2 m/S 756 mmHg 94%
03:00 +20°C° 0 mm 2 m/S 756 mmHg 95%
04:00 +20°C° 0 mm 2 m/S 756 mmHg 95%
05:00 +20°C° 0 mm 3 m/S 756 mmHg 95%
06:00 +20°C° 0 mm 3 m/S 757 mmHg 95%
07:00 +22°C° 0 mm 3 m/S 757 mmHg 88%
08:00 +24°C° 0 mm 3 m/S 757 mmHg 81%
09:00 +26°C° 0 mm 4 m/S 757 mmHg 73%
10:00 +28°C° 0 mm 4 m/S 757 mmHg 67%
11:00 +29°C° 0 mm 4 m/S 756 mmHg 61%
12:00 +30°C° 0 mm 4 m/S 756 mmHg 54%
13:00 +30°C° 0 mm 4 m/S 756 mmHg 54%
14:00 +30°C° 0 mm 4 m/S 755 mmHg 54%
15:00 +30°C° 0 mm 4 m/S 755 mmHg 54%
16:00 +28°C° 0 mm 4 m/S 755 mmHg 61%
17:00 +27°C° 0 mm 3 m/S 755 mmHg 68%
18:00 +25°C° 0 mm 3 m/S 755 mmHg 75%
19:00 +24°C° 0 mm 3 m/S 755 mmHg 77%
20:00 +24°C° 0 mm 3 m/S 756 mmHg 80%
21:00 +22°C° 0 mm 3 m/S 756 mmHg 83%
22:00 +23°C° 0 mm 2 m/S 756 mmHg 86%
23:00 +21°C° 0 mm 2 m/S 756 mmHg 88%

übermorgen, 23 Oktober, Freitag

Zeit Temperatur Niederschläge Wind Luftdruck Luftfeuchtigkeit
00:00 +21°C° 0 mm 2 m/S 755 mmHg 91%
01:00 +21°C° 0 mm 2 m/S 755 mmHg 91%
02:00 +21°C° 0 mm 2 m/S 755 mmHg 91%
03:00 +20°C° 0 mm 2 m/S 755 mmHg 91%
04:00 +20°C° 0 mm 2 m/S 755 mmHg 93%
05:00 +20°C° 0 mm 2 m/S 755 mmHg 94%
06:00 +19°C° 0 mm 2 m/S 755 mmHg 95%
07:00 +21°C° 0 mm 2 m/S 756 mmHg 88%
08:00 +24°C° 0 mm 3 m/S 756 mmHg 80%
09:00 +26°C° 0 mm 3 m/S 756 mmHg 73%
10:00 +27°C° 0 mm 3 m/S 756 mmHg 68%
11:00 +28°C° 0 mm 3 m/S 755 mmHg 63%
12:00 +29°C° 0 mm 3 m/S 755 mmHg 58%
13:00 +29°C° 0.1 mm 2 m/S 754 mmHg 58%
14:00 +29°C° 0.1 mm 2 m/S 754 mmHg 58%
15:00 +29°C° 0.1 mm 2 m/S 753 mmHg 58%
16:00 +28°C° 0.1 mm 2 m/S 754 mmHg 63%
17:00 +26°C° 0.1 mm 2 m/S 754 mmHg 69%
18:00 +25°C° 0.1 mm 2 m/S 754 mmHg 74%
19:00 +24°C° 0.6 mm 2 m/S 754 mmHg 80%
20:00 +23°C° 0.6 mm 2 m/S 754 mmHg 85%
21:00 +23°C° 0.6 mm 2 m/S 755 mmHg 90%
22:00 +21°C° 0.2 mm 2 m/S 755 mmHg 91%
23:00 +22°C° 0.2 mm 1 m/S 754 mmHg 92%

24 Oktober, Samstag

Zeit Temperatur Niederschläge Wind Luftdruck Luftfeuchtigkeit
00:00 +22°C° 0.2 mm 1 m/S 754 mmHg 93%
01:00 +22°C° 0 mm 1 m/S 754 mmHg 94%
02:00 +22°C° 0 mm 1 m/S 754 mmHg 94%
03:00 +21°C° 0 mm 1 m/S 754 mmHg 95%
04:00 +21°C° 0.1 mm 1 m/S 754 mmHg 95%
05:00 +21°C° 0.1 mm 1 m/S 754 mmHg 96%
06:00 +21°C° 0.1 mm 1 m/S 754 mmHg 96%
07:00 +23°C° 0 mm 1 m/S 754 mmHg 89%
08:00 +25°C° 0 mm 1 m/S 755 mmHg 82%
09:00 +26°C° 0 mm 1 m/S 755 mmHg 75%
10:00 +27°C° 1.4 mm 1 m/S 754 mmHg 74%
11:00 +27°C° 1.4 mm 1 m/S 754 mmHg 74%
12:00 +27°C° 1.4 mm 1 m/S 753 mmHg 74%
13:00 +27°C° 0.3 mm 1 m/S 753 mmHg 72%
14:00 +27°C° 0.3 mm 1 m/S 752 mmHg 70%
15:00 +28°C° 0.3 mm 1 m/S 752 mmHg 68%
16:00 +26°C° 0.5 mm 1 m/S 752 mmHg 74%
17:00 +25°C° 0.5 mm 1 m/S 752 mmHg 79%
18:00 +24°C° 0.5 mm 1 m/S 752 mmHg 85%
19:00 +23°C° 0 mm 1 m/S 753 mmHg 86%
20:00 +23°C° 0 mm 1 m/S 753 mmHg 88%
21:00 +21°C° 0 mm 0 m/S 753 mmHg 89%
22:00 +22°C° 0 mm 1 m/S 753 mmHg 90%
23:00 +22°C° 0 mm 1 m/S 753 mmHg 91%

25 Oktober, Sonntag

Zeit Temperatur Niederschläge Wind Luftdruck Luftfeuchtigkeit
00:00 +22°C° 0 mm 1 m/S 753 mmHg 91%
01:00 +22°C° 0.8 mm 1 m/S 753 mmHg 93%
02:00 +22°C° 0.8 mm 1 m/S 753 mmHg 94%
03:00 +21°C° 0.8 mm 1 m/S 753 mmHg 96%
04:00 +21°C° 1.7 mm 1 m/S 753 mmHg 96%
05:00 +21°C° 1.7 mm 1 m/S 754 mmHg 96%
06:00 +21°C° 1.7 mm 1 m/S 754 mmHg 96%
07:00 +23°C° 0.4 mm 1 m/S 754 mmHg 90%
08:00 +24°C° 0.4 mm 1 m/S 754 mmHg 84%
09:00 +26°C° 0.4 mm 2 m/S 755 mmHg 78%
10:00 +27°C° 1.7 mm 2 m/S 754 mmHg 75%
11:00 +28°C° 1.7 mm 2 m/S 754 mmHg 71%
12:00 +29°C° 1.7 mm 2 m/S 754 mmHg 67%
13:00 +29°C° 1.6 mm 2 m/S 753 mmHg 68%
14:00 +28°C° 1.6 mm 2 m/S 753 mmHg 68%
15:00 +28°C° 1.6 mm 1 m/S 753 mmHg 69%
16:00 +27°C° 0.5 mm 1 m/S 753 mmHg 74%
17:00 +26°C° 0.5 mm 1 m/S 753 mmHg 78%
18:00 +24°C° 0.5 mm 1 m/S 754 mmHg 83%
19:00 +24°C° 0 mm 2 m/S 754 mmHg 85%
20:00 +23°C° 0 mm 2 m/S 754 mmHg 86%
21:00 +22°C° 0 mm 3 m/S 755 mmHg 87%
22:00 +23°C° 0 mm 2 m/S 755 mmHg 89%
23:00 +21°C° 0 mm 2 m/S 755 mmHg 90%

26 Oktober, Montag

Zeit Temperatur Niederschläge Wind Luftdruck Luftfeuchtigkeit
00:00 +21°C° 0 mm 2 m/S 755 mmHg 91%
01:00 +21°C° 0 mm 2 m/S 755 mmHg 92%
02:00 +20°C° 0 mm 2 m/S 755 mmHg 94%
03:00 +20°C° 0 mm 2 m/S 755 mmHg 95%
04:00 +20°C° 0 mm 2 m/S 755 mmHg 96%
05:00 +20°C° 0 mm 2 m/S 755 mmHg 96%
06:00 +20°C° 0 mm 2 m/S 755 mmHg 96%
07:00 +23°C° 0 mm 2 m/S 755 mmHg 90%
08:00 +24°C° 0 mm 2 m/S 755 mmHg 84%
09:00 +26°C° 0 mm 3 m/S 756 mmHg 78%
10:00 +27°C° 0 mm 3 m/S 755 mmHg 71%
11:00 +28°C° 0 mm 3 m/S 755 mmHg 64%
12:00 +30°C° 0 mm 3 m/S 754 mmHg 57%
13:00 +30°C° 0 mm 3 m/S 754 mmHg 57%
14:00 +30°C° 0 mm 3 m/S 754 mmHg 57%
15:00 +30°C° 0 mm 2 m/S 753 mmHg 57%
16:00 +28°C° 0 mm 2 m/S 754 mmHg 65%
17:00 +27°C° 0 mm 2 m/S 754 mmHg 73%
18:00 +25°C° 0 mm 2 m/S 754 mmHg 81%
19:00 +25°C° 0 mm 2 m/S 754 mmHg 84%
20:00 +24°C° 0 mm 2 m/S 755 mmHg 87%
21:00 +24°C° 0 mm 3 m/S 755 mmHg 91%
22:00 +24°C° 0 mm 2 m/S 755 mmHg 92%
23:00 +23°C° 0 mm 2 m/S 755 mmHg 92%

27 Oktober, Dienstag

Zeit Temperatur Niederschläge Wind Luftdruck Luftfeuchtigkeit
00:00 +23°C° 0 mm 2 m/S 755 mmHg 93%
01:00 +21°C° 0 mm 2 m/S 755 mmHg 94%
02:00 +21°C° 0 mm 2 m/S 755 mmHg 94%
03:00 +21°C° 0 mm 2 m/S 755 mmHg 95%
04:00 +20°C° 0 mm 2 m/S 755 mmHg 95%
05:00 +21°C° 0 mm 1 m/S 755 mmHg 95%
06:00 +21°C° 0 mm 1 m/S 755 mmHg 96%
07:00 +23°C° 0 mm 1 m/S 755 mmHg 88%
08:00 +25°C° 0 mm 2 m/S 755 mmHg 80%
09:00 +27°C° 0 mm 2 m/S 755 mmHg 72%
10:00 +28°C° 0 mm 2 m/S 755 mmHg 66%
11:00 +29°C° 0 mm 2 m/S 754 mmHg 60%
12:00 +31°C° 0 mm 2 m/S 754 mmHg 55%
13:00 +30°C° 0 mm 2 m/S 753 mmHg 55%
14:00 +30°C° 0 mm 1 m/S 753 mmHg 54%
15:00 +30°C° 0 mm 1 m/S 753 mmHg 54%
16:00 +29°C° 0 mm 1 m/S 753 mmHg 59%
17:00 +28°C° 0 mm 1 m/S 753 mmHg 63%
18:00 +26°C° 0 mm 1 m/S 753 mmHg 68%
19:00 +26°C° 0 mm 1 m/S 753 mmHg 69%
20:00 +26°C° 0 mm 1 m/S 753 mmHg 71%
21:00 +25°C° 0 mm 1 m/S 753 mmHg 72%
22:00 +25°C° 0 mm 1 m/S 753 mmHg 74%
23:00 +24°C° 0 mm 1 m/S 753 mmHg 75%
Mehr zeigen

Wir brauchen deine Erlaubnis

Meteoprog und unser Service Anbieter werden persönliche Daten aufbewahren, so wie Cookies, Geräte Bezeichnung oder ähnliche Technologien von deinem Gerät und Prozess, so wie Persönliche Daten Inhalte und Werbungen, genauso wie social Media und den Verkehr zu analysieren.

  • Aufbewahrung und/oder Zugang zu deiner Geräte Informationen.

    Cookies, Geräte Bezeichnung oder andere Informationen, können aufbewahrt oder Zugang zu deinem Gerät erhalten, für den Grund, der oben angegeben wird.

  • Personalisierte Werbung und Inhalte, Messungen, Einblick in das Publikum und Produkt Entwicklung.

    Werbungen und Inhalte können personalisiert werden, basierend auf ein Profil. Mehr Daten können besser personalisierte Werbungen und Inhalte hinzufügen. Werbung und Inhalte können gezeigt und gemessen werden. Einblicke über das Publikum, welche die Werbung gesehen haben und den Inhalt, können abgeleitet werden. So wie Daten können genutzt werden, um es zu verbessern oder die Benutzer Erfahrung zu verbessern das System und die Software.

Wenn du “Ich stimme zu” klickst, erlaubst du uns, die Cookies zu benutzen die Geräte Bezeichnung, den Web oder ähnliche Technologien zu benutzen. Deine Settings, können in deinem Gerät bei deinem Browser geändert werden.

Für den bestimmten Zweck, berechtigten Interessen beruhen darauf, mehr als auf den Inhalt. Du kannst mehr darüber in unseren Privaten und Cookie Politik lesen.